QPF
0.12 0.04 0.01 0.01 0.00 0.00 0.00 0.00 0.00 0.00 0.00 0.00 0.00 0.00 0.00 0.00 0.00 0.00 0.00 0.00 0.00 0.00 0.00 0.00 0.00 0.00 0.00 0.00 0.00 0.00 0.00 0.00 0.00 0.00 0.00 0.00 0.00 0.00 0.00 0.00 0.00 0.00
0.14 0.10 0.03 0.01 0.00 0.00 0.00 0.00 0.00 0.00 0.00 0.00 0.00 0.00 0.00 0.00 0.00 0.00 0.00 0.00 0.00 0.00 0.00 0.00 0.00 0.00 0.00 0.00 0.00 0.00 0.00 0.00 0.00 0.00 0.00 0.00 0.00 0.00 0.00 0.00 0.00 0.00
0.04 0.08 0.05 0.02 0.01 0.00 0.00 0.00 0.01 0.00 0.00 0.00 0.00 0.00 0.00 0.00 0.00 0.00 0.00 0.00 0.00 0.00 0.00 0.00 0.00 0.00 0.00 0.00 0.00 0.00 0.00 0.00 0.00 0.00 0.00 0.00 0.00 0.00 0.02 0.00 0.00 0.00
0.01 0.02 0.02 0.02 0.01 0.00 0.01 0.01 0.00 0.00 0.00 0.00 0.00 0.00 0.00 0.00 0.00 0.00 0.00 0.00 0.00 0.00 0.00 0.00 0.00 0.00 0.00 0.00 0.00 0.00 0.00 0.00 0.00 0.00 0.00 0.00 0.00 0.00 0.00 0.00 0.00 0.00
0.00 0.00 0.00 0.00 0.00 0.01 0.02 0.01 0.00 0.00 0.00 0.00 0.00 0.00 0.00 0.00 0.00 0.00 0.00 0.00 0.00 0.00 0.00 0.00 0.00 0.00 0.00 0.00 0.00 0.00 0.00 0.00 0.00 0.00 0.00 0.00 0.00 0.00 0.00 0.00 0.00 0.00
0.00 0.00 0.00 0.00 0.00 0.00 0.01 0.01 0.00 0.00 0.00 0.00 0.00 0.00 0.00 0.00 0.00 0.00 0.00 0.00 0.00 0.00 0.00 0.00 0.00 0.00 0.00 0.00 0.00 0.00 0.00 0.00 0.00 0.00 0.00 0.00 0.00 0.00 0.00 0.00 0.00 0.00
0.00 0.00 0.00 0.00 0.00 0.00 0.00 0.00 0.00 0.00 0.00 0.00 0.00 0.00 0.00 0.00 0.00 0.00 0.00 0.00 0.00 0.00 0.00 0.00 0.00 0.00 0.00 0.00 0.00 0.00 0.00 0.00 0.00 0.00 0.00 0.00 0.00 0.00 0.00 0.00 0.00 0.00
0.00 0.00 0.00 0.01 0.00 0.00 0.00 0.00 0.00 0.00 0.00 0.00 0.00 0.00 0.00 0.00 0.00 0.00 0.00 0.00 0.00 0.00 0.00 0.00 0.00 0.00 0.00 0.00 0.00 0.00 0.00 0.00 0.00 0.00 0.00 0.00 0.00 0.00 0.00 0.00 0.00 0.00
0.00 0.00 0.00 0.01 0.02 0.01 0.01 0.00 0.00 0.00 0.00 0.00 0.00 0.00 0.00 0.00 0.00 0.00 0.00 0.00 0.00 0.00 0.00 0.00 0.00 0.00 0.00 0.00 0.00 0.00 0.00 0.00 0.00 0.00 0.00 0.00 0.00 0.00 0.00 0.00 0.00 0.00
0.00 0.00 0.00 0.01 0.01 0.01 0.00 0.00 0.00 0.00 0.00 0.00 0.00 0.00 0.00 0.00 0.00 0.00 0.00 0.00 0.00 0.00 0.00 0.00 0.00 0.00 0.00 0.00 0.00 0.00 0.00 0.00 0.00 0.00 0.00 0.00 0.00 0.00 0.00 0.00 0.00 0.00
0.00 0.00 0.00 0.09 0.20 0.08 0.01 0.00 0.00 0.00 0.00 0.00 0.00 0.00 0.00 0.00 0.00 0.00 0.00 0.00 0.00 0.00 0.00 0.00 0.00 0.00 0.00 0.00 0.00 0.00 0.00 0.00 0.00 0.00 0.00 0.00 0.00 0.00 0.00 0.00 0.00 0.00
0.27 0.00 0.04 0.30 0.32 0.35 0.10 0.00 0.00 0.00 0.00 0.00 0.00 0.00 0.00 0.00 0.00 0.00 0.00 0.00 0.00 0.00 0.00 0.00 0.00 0.00 0.00 0.00 0.00 0.00 0.00 0.00 0.00 0.00 0.00 0.00 0.00 0.00 0.00 0.00 0.00 0.00
0.26 0.39 0.01 0.42 0.25 0.27 0.13 0.00 0.02 0.00 0.00 0.00 0.00 0.00 0.00 0.00 0.00 0.00 0.00 0.00 0.00 0.00 0.00 0.00 0.00 0.00 0.00 0.00 0.00 0.00 0.00 0.00 0.00 0.00 0.00 0.00 0.00 0.00 0.00 0.00 0.00 0.00
0.14 0.28 0.70 0.51 0.27 0.33 0.16 0.00 0.00 0.00 0.00 0.00 0.00 0.00 0.00 0.00 0.00 0.00 0.00 0.00 0.00 0.00 0.00 0.00 0.00 0.00 0.00 0.00 0.00 0.00 0.00 0.00 0.00 0.00 0.00 0.00 0.00 0.00 0.00 0.00 0.00 0.00
0.28 0.54 0.41 0.47 0.35 0.36 0.24 0.01 0.00 0.00 0.00 0.00 0.00 0.00 0.00 0.00 0.00 0.00 0.00 0.00 0.00 0.00 0.00 0.00 0.00 0.00 0.00 0.00 0.00 0.00 0.00 0.00 0.00 0.00 0.00 0.00 0.00 0.00 0.00 0.00 0.00 0.00
0.30 0.25 0.41 0.23 0.23 0.26 0.27 0.08 0.00 0.00 0.00 0.00 0.00 0.00 0.00 0.00 0.00 0.00 0.00 0.00 0.00 0.00 0.00 0.00 0.00 0.00 0.00 0.00 0.00 0.00 0.00 0.00 0.00 0.00 0.00 0.00 0.00 0.00 0.00 0.00 0.00 0.00
0.30 0.38 0.27 0.46 0.39 0.19 0.08 0.05 0.00 0.00 0.02 0.00 0.00 0.00 0.00 0.00 0.00 0.00 0.00 0.00 0.00 0.00 0.00 0.00 0.00 0.00 0.00 0.00 0.00 0.00 0.00 0.00 0.00 0.00 0.00 0.00 0.00 0.00 0.00 0.00 0.00 0.00
0.47 0.42 0.29 0.25 0.21 0.11 0.09 0.01 0.01 0.03 0.04 0.02 0.00 0.01 0.01 0.00 0.00 0.00 0.00 0.00 0.00 0.00 0.00 0.00 0.00 0.00 0.00 0.00 0.00 0.00 0.00 0.00 0.00 0.00 0.00 0.00 0.00 0.00 0.00 0.00 0.00 0.00
0.33 0.23 0.37 0.24 0.22 0.20 0.16 0.01 0.02 0.07 0.10 0.06 0.03 0.01 0.00 0.00 0.00 0.00 0.00 0.00 0.00 0.00 0.00 0.00 0.00 0.00 0.00 0.00 0.00 0.00 0.00 0.00 0.00 0.00 0.00 0.00 0.00 0.00 0.00 0.00 0.00 0.00
0.32 0.29 0.23 0.32 0.36 0.29 0.09 0.01 0.04 0.05 0.07 0.06 0.04 0.01 0.00 0.00 0.00 0.00 0.00 0.00 0.00 0.00 0.00 0.00 0.00 0.00 0.00 0.00 0.00 0.00 0.00 0.00 0.00 0.00 0.00 0.00 0.00 0.00 0.00 0.00 0.00 0.00
0.30 0.25 0.24 0.21 0.16 0.09 0.07 0.09 0.04 0.06 0.04 0.11 0.04 0.02 0.01 0.00 0.00 0.00 0.00 0.00 0.00 0.00 0.00 0.00 0.00 0.00 0.00 0.00 0.00 0.00 0.00 0.00 0.00 0.00 0.00 0.00 0.00 0.00 0.00 0.00 0.00 0.00
0.25 0.23 0.18 0.14 0.11 0.08 0.05 0.06 0.11 0.08 0.05 0.05 0.07 0.03 0.01 0.00 0.00 0.00 0.00 0.00 0.00 0.00 0.00 0.00 0.00 0.00 0.00 0.00 0.00 0.00 0.00 0.00 0.00 0.00 0.00 0.00 0.00 0.00 0.00 0.00 0.00 0.00
0.26 0.21 0.10 0.09 0.08 0.06 0.06 0.09 0.15 0.09 0.11 0.04 0.05 0.03 0.01 0.00 0.00 0.00 0.00 0.00 0.00 0.00 0.00 0.00 0.00 0.00 0.00 0.00 0.00 0.00 0.00 0.00 0.00 0.00 0.00 0.00 0.00 0.00 0.00 0.00 0.00 0.00
0.20 0.19 0.15 0.11 0.11 0.08 0.17 0.14 0.18 0.20 0.10 0.06 0.07 0.02 0.01 0.01 0.01 0.01 0.01 0.00 0.00 0.00 0.00 0.00 0.00 0.00 0.00 0.00 0.00 0.00 0.00 0.00 0.00 0.00 0.00 0.00 0.00 0.00 0.00 0.00 0.00 0.00
0.34 0.23 0.18 0.13 0.14 0.14 0.13 0.25 0.21 0.19 0.33 0.19 0.11 0.05 0.06 0.08 0.08 0.09 0.13 0.07 0.01 0.00 0.00 0.00 0.00 0.00 0.00 0.00 0.00 0.00 0.00 0.00 0.00 0.00 0.00 0.00 0.00 0.00 0.00 0.00 0.00 0.00
0.48 0.39 0.26 0.24 0.30 0.22 0.22 0.19 0.21 0.28 0.28 0.23 0.25 0.17 0.13 0.11 0.12 0.16 0.17 0.11 0.06 0.03 0.01 0.00 0.00 0.00 0.00 0.00 0.00 0.00 0.00 0.00 0.00 0.00 0.00 0.00 0.00 0.00 0.00 0.00 0.00 0.00
MSLP
1012.92 1012.57 1013.01 1013.53 1014.04 1014.24 1014.45 1014.68 1014.80 1015.04 1015.21 1015.41 1015.72 1016.01 1016.21 1016.41 1016.48 1016.72 1016.97 1017.16 1017.36 1017.60 1017.72 1017.89 1017.97 1018.16 1018.28 1018.48 1018.65 1018.84 1019.09 1019.28 1019.41 1019.48 1019.68 1019.84 1020.12 1020.33 1020.57 1020.65 1020.72 1020.80
1013.57 1012.92 1012.65 1013.16 1013.68 1014.01 1014.21 1014.41 1014.65 1014.77 1015.01 1015.16 1015.41 1015.68 1015.97 1016.21 1016.45 1016.65 1016.92 1017.16 1017.33 1017.57 1017.68 1017.84 1017.97 1018.12 1018.28 1018.45 1018.65 1018.84 1019.04 1019.21 1019.41 1019.33 1019.65 1019.84 1020.04 1020.21 1020.41 1020.45 1020.57 1020.68
1014.01 1013.80 1013.09 1012.97 1013.33 1013.68 1014.01 1014.24 1014.48 1014.65 1014.89 1015.01 1015.16 1015.53 1015.92 1016.09 1016.41 1016.60 1016.80 1017.04 1017.28 1017.48 1017.65 1017.77 1017.92 1018.09 1018.24 1018.41 1018.57 1018.77 1019.01 1019.16 1019.36 1019.41 1019.57 1019.84 1020.01 1020.21 1020.45 1020.41 1020.53 1020.60
1014.09 1014.21 1013.77 1013.24 1013.12 1013.41 1013.72 1014.09 1014.36 1014.65 1014.80 1015.09 1015.28 1015.48 1015.77 1016.04 1016.33 1016.60 1016.77 1016.92 1017.21 1017.41 1017.57 1017.72 1017.89 1018.01 1018.21 1018.36 1018.53 1018.77 1018.84 1018.97 1019.09 1019.24 1019.53 1019.72 1019.92 1020.04 1020.28 1020.33 1020.45 1020.57
1014.01 1014.12 1014.09 1013.89 1013.65 1013.60 1013.68 1013.84 1014.16 1014.57 1014.72 1014.97 1015.21 1015.45 1015.77 1016.12 1016.41 1016.60 1016.84 1017.04 1017.12 1017.33 1017.48 1017.68 1017.77 1017.92 1018.12 1018.28 1018.45 1018.68 1018.80 1018.92 1018.97 1019.12 1019.45 1019.72 1019.80 1019.92 1020.09 1020.21 1020.36 1020.57
1013.89 1013.89 1013.92 1013.97 1013.84 1013.84 1013.92 1013.92 1014.09 1014.33 1014.60 1014.84 1015.09 1015.36 1015.68 1016.01 1016.33 1016.57 1016.84 1017.09 1017.16 1017.33 1017.53 1017.60 1017.77 1017.84 1018.01 1018.21 1018.36 1018.53 1018.68 1018.89 1018.92 1019.09 1019.36 1019.57 1019.72 1019.80 1019.97 1020.12 1020.24 1020.45
1013.92 1013.89 1013.89 1013.84 1013.89 1013.84 1013.92 1014.04 1014.24 1014.21 1014.36 1014.60 1014.92 1015.36 1015.60 1015.97 1016.24 1016.53 1016.77 1016.92 1017.16 1017.33 1017.48 1017.60 1017.72 1017.80 1017.92 1018.09 1018.33 1018.48 1018.57 1018.65 1018.84 1019.01 1019.24 1019.41 1019.53 1019.72 1019.77 1019.97 1020.09 1020.21
1013.89 1013.84 1013.77 1013.77 1013.80 1013.80 1013.84 1014.12 1014.16 1014.12 1014.21 1014.53 1014.97 1015.33 1015.48 1015.92 1016.16 1016.41 1016.65 1016.84 1017.12 1017.24 1017.36 1017.53 1017.60 1017.72 1017.84 1017.97 1018.28 1018.41 1018.48 1018.53 1018.77 1018.92 1019.12 1019.21 1019.36 1019.60 1019.72 1019.77 1019.89 1020.09
1013.53 1013.65 1013.72 1013.72 1013.68 1013.65 1013.80 1013.97 1013.89 1013.92 1014.16 1014.57 1015.01 1015.33 1015.53 1015.84 1016.04 1016.28 1016.53 1016.72 1017.01 1017.09 1017.33 1017.41 1017.48 1017.65 1017.72 1018.01 1018.16 1018.28 1018.41 1018.48 1018.60 1018.72 1019.01 1019.16 1019.33 1019.45 1019.53 1019.60 1019.80 1019.92
1013.36 1013.41 1013.60 1013.60 1013.60 1013.57 1013.72 1013.65 1013.60 1013.80 1014.12 1014.53 1014.92 1015.24 1015.65 1015.84 1015.97 1016.12 1016.36 1016.65 1016.80 1017.04 1017.24 1017.36 1017.53 1017.60 1017.72 1017.92 1018.04 1018.12 1018.28 1018.41 1018.53 1018.65 1018.80 1018.89 1019.12 1019.21 1019.41 1019.48 1019.72 1019.89
1013.68 1013.57 1013.57 1013.60 1013.68 1013.77 1013.60 1013.36 1013.36 1013.80 1014.16 1014.53 1014.92 1015.41 1015.72 1015.84 1016.01 1016.04 1016.33 1016.53 1016.77 1017.04 1017.21 1017.36 1017.48 1017.57 1017.72 1017.89 1017.89 1017.92 1018.12 1018.24 1018.36 1018.53 1018.65 1018.89 1018.89 1018.97 1019.16 1019.48 1019.68 1019.80
1014.04 1013.68 1013.68 1013.89 1014.16 1014.57 1013.65 1013.24 1013.36 1013.77 1014.21 1014.60 1014.97 1015.41 1015.68 1015.80 1015.97 1016.09 1016.21 1016.48 1016.72 1016.97 1017.04 1017.28 1017.53 1017.77 1017.92 1017.92 1017.84 1017.92 1018.01 1018.09 1018.24 1018.36 1018.57 1018.60 1018.77 1018.89 1019.12 1019.36 1019.57 1019.77
1013.33 1013.41 1013.72 1014.53 1014.77 1014.84 1014.01 1013.33 1013.53 1013.92 1014.24 1014.77 1015.09 1015.36 1015.60 1015.80 1015.92 1016.09 1016.16 1016.33 1016.72 1017.09 1017.45 1017.65 1017.92 1018.21 1018.33 1018.21 1018.04 1018.09 1018.09 1018.21 1018.36 1018.45 1018.53 1018.60 1018.60 1018.97 1019.12 1019.41 1019.65 1019.68
1013.16 1013.36 1013.89 1014.65 1014.77 1015.09 1014.45 1013.57 1013.68 1014.09 1014.45 1014.84 1015.09 1015.36 1015.57 1015.72 1016.01 1016.16 1016.48 1016.84 1017.28 1017.60 1017.92 1018.12 1018.36 1018.53 1018.68 1018.57 1018.45 1018.36 1018.28 1018.16 1018.33 1018.48 1018.68 1018.72 1018.89 1019.12 1019.28 1019.41 1019.45 1019.57
1013.45 1013.45 1013.84 1014.48 1014.77 1014.92 1014.65 1013.92 1013.97 1014.24 1014.60 1014.84 1015.04 1015.36 1015.53 1015.77 1015.97 1016.48 1016.84 1017.33 1017.72 1018.04 1018.33 1018.60 1018.89 1019.33 1019.65 1019.36 1018.84 1018.60 1018.48 1018.45 1018.48 1018.57 1018.68 1018.72 1018.92 1019.28 1019.33 1019.41 1019.53 1019.60
1013.45 1013.68 1014.24 1014.68 1014.36 1014.60 1015.09 1014.72 1014.33 1014.57 1014.72 1014.92 1015.04 1015.36 1015.77 1016.09 1016.48 1016.80 1017.09 1017.53 1018.04 1018.53 1018.80 1019.09 1019.53 1019.80 1020.04 1019.84 1019.57 1019.09 1018.77 1018.57 1018.65 1018.77 1018.72 1018.80 1018.97 1019.45 1019.60 1019.60 1019.65 1019.80
1013.41 1013.68 1014.16 1014.68 1014.68 1014.92 1015.36 1015.09 1014.60 1014.72 1014.89 1015.21 1015.60 1015.97 1016.41 1016.68 1016.89 1017.24 1017.60 1017.92 1018.28 1018.72 1019.12 1019.53 1019.89 1020.16 1020.09 1019.80 1019.33 1019.09 1018.84 1018.72 1018.80 1018.89 1018.92 1018.89 1018.97 1019.36 1019.65 1019.72 1019.80 1019.80
1013.41 1013.80 1014.28 1014.77 1014.80 1015.12 1015.21 1014.84 1014.68 1014.84 1015.28 1015.80 1016.12 1016.28 1016.68 1017.33 1017.65 1017.97 1018.16 1018.36 1018.68 1019.04 1019.45 1019.80 1020.09 1020.16 1019.72 1019.72 1019.45 1019.09 1019.01 1018.92 1018.92 1019.01 1018.97 1019.01 1019.09 1019.28 1019.68 1019.77 1019.80 1019.92
1013.57 1014.01 1014.45 1014.92 1015.09 1015.41 1015.45 1014.77 1014.89 1015.28 1015.72 1016.21 1016.68 1016.84 1017.04 1017.68 1018.21 1018.41 1018.65 1018.80 1018.89 1019.24 1019.89 1020.21 1020.28 1020.33 1019.72 1019.57 1019.41 1019.24 1019.04 1019.01 1019.04 1019.12 1019.16 1019.24 1019.33 1019.41 1019.53 1019.89 1020.04 1020.04
1014.24 1014.41 1014.77 1015.04 1015.24 1015.77 1015.77 1015.09 1015.33 1015.80 1016.16 1016.60 1016.92 1016.92 1017.36 1018.16 1018.57 1018.84 1019.09 1019.21 1019.41 1019.68 1020.16 1020.48 1020.65 1020.72 1020.01 1019.68 1019.48 1019.28 1019.16 1019.12 1019.21 1019.33 1019.41 1019.48 1019.57 1019.60 1019.68 1019.72 1019.92 1020.16
1015.24 1015.09 1015.41 1015.60 1015.68 1016.12 1016.12 1015.97 1016.04 1016.36 1016.72 1017.09 1017.01 1017.16 1017.84 1018.53 1018.84 1019.04 1019.33 1019.48 1019.68 1019.92 1020.16 1020.60 1021.09 1020.92 1020.24 1019.84 1019.68 1019.41 1019.24 1019.16 1019.33 1019.48 1019.48 1019.60 1019.89 1020.01 1020.09 1020.21 1020.53 1021.01
1016.45 1016.01 1016.01 1016.21 1016.41 1016.53 1016.65 1016.84 1016.89 1017.04 1017.45 1017.36 1017.33 1017.72 1018.45 1018.80 1019.21 1019.33 1019.60 1019.92 1020.12 1020.16 1020.33 1020.68 1020.97 1020.84 1020.48 1020.09 1019.92 1019.80 1019.45 1019.48 1019.60 1019.65 1019.68 1020.01 1020.77 1021.09 1021.12 1021.16 1021.36 1021.77
1017.28 1016.80 1016.53 1016.60 1017.01 1017.16 1017.45 1017.72 1017.72 1017.89 1018.09 1017.77 1017.60 1018.48 1019.09 1019.28 1019.53 1019.68 1019.92 1020.12 1020.28 1020.48 1020.77 1021.09 1021.16 1021.21 1020.84 1020.48 1020.28 1020.12 1019.72 1019.89 1020.01 1020.21 1020.48 1021.04 1021.89 1022.04 1022.12 1022.16 1022.28 1022.53
1018.01 1017.77 1017.41 1017.41 1017.57 1017.84 1018.09 1018.33 1018.41 1018.36 1018.41 1018.33 1018.33 1018.92 1019.57 1019.77 1019.80 1020.09 1020.41 1020.53 1020.65 1020.92 1021.12 1021.28 1021.60 1021.60 1021.16 1020.72 1020.60 1020.60 1020.45 1020.53 1020.68 1020.72 1020.97 1021.41 1022.12 1022.48 1022.68 1022.80 1022.84 1022.68
1018.65 1018.48 1018.24 1018.09 1018.28 1018.57 1018.65 1018.77 1018.80 1018.80 1018.84 1018.77 1019.01 1019.24 1019.80 1020.01 1020.12 1020.28 1020.60 1020.84 1021.04 1021.24 1021.28 1021.45 1021.89 1021.92 1021.60 1021.16 1021.04 1021.04 1021.04 1021.16 1021.28 1021.36 1021.48 1021.77 1022.16 1022.68 1022.92 1023.09 1023.16 1023.16
1019.24 1019.21 1019.12 1019.04 1019.16 1019.24 1019.33 1019.36 1019.33 1019.24 1019.33 1019.01 1019.09 1019.41 1019.80 1020.04 1020.28 1020.53 1020.77 1021.12 1021.33 1021.53 1021.84 1022.09 1022.28 1022.41 1022.16 1021.72 1021.68 1021.65 1021.60 1021.65 1021.89 1022.09 1022.16 1022.04 1022.09 1022.57 1023.04 1023.28 1023.33 1023.41
Thickness
5661 5663 5661 5658 5655 5654 5654 5653 5653 5653 5652 5651 5651 5650 5649 5649 5648 5648 5646 5645 5644 5643 5643 5643 5643 5642 5641 5641 5640 5639 5637 5637 5636 5636 5635 5634 5632 5631 5629 5629 5628 5627
5655 5659 5661 5659 5656 5654 5654 5653 5653 5653 5652 5652 5651 5650 5649 5647 5647 5646 5644 5643 5642 5641 5640 5640 5640 5640 5639 5639 5637 5636 5636 5635 5635 5635 5633 5631 5631 5630 5629 5628 5627 5626
5648 5651 5657 5659 5657 5656 5655 5653 5652 5652 5651 5651 5650 5648 5647 5645 5644 5643 5642 5641 5640 5639 5638 5638 5638 5638 5637 5637 5636 5635 5634 5633 5633 5633 5631 5630 5630 5628 5626 5627 5626 5625
5644 5644 5649 5654 5656 5656 5655 5653 5651 5650 5649 5648 5648 5647 5645 5643 5641 5640 5640 5638 5638 5636 5636 5636 5636 5636 5635 5635 5634 5633 5633 5633 5633 5632 5629 5628 5628 5626 5625 5625 5624 5623
5642 5642 5644 5648 5650 5651 5652 5652 5650 5648 5648 5646 5646 5645 5643 5640 5638 5637 5636 5635 5635 5634 5633 5634 5633 5634 5633 5633 5632 5632 5632 5632 5632 5630 5628 5627 5626 5625 5624 5624 5622 5621
5642 5642 5642 5644 5646 5646 5647 5648 5648 5647 5647 5645 5644 5643 5640 5638 5636 5634 5633 5633 5633 5631 5631 5631 5631 5632 5631 5631 5630 5630 5630 5630 5630 5629 5627 5626 5625 5624 5624 5623 5622 5621
5640 5641 5642 5642 5643 5644 5643 5644 5645 5646 5646 5644 5643 5641 5639 5637 5634 5633 5632 5631 5630 5629 5629 5629 5629 5629 5629 5629 5629 5628 5629 5629 5628 5627 5626 5625 5624 5623 5623 5623 5622 5621
5637 5639 5640 5641 5642 5642 5642 5641 5642 5644 5645 5643 5641 5639 5637 5635 5633 5631 5631 5629 5628 5628 5628 5628 5627 5628 5628 5627 5626 5626 5627 5627 5627 5626 5624 5624 5624 5622 5622 5622 5622 5621
5636 5636 5638 5639 5641 5642 5641 5640 5641 5643 5642 5641 5638 5636 5635 5633 5631 5630 5628 5627 5627 5626 5627 5626 5625 5626 5626 5625 5625 5624 5625 5625 5625 5624 5623 5623 5622 5622 5621 5622 5621 5620
5635 5634 5635 5637 5639 5640 5640 5640 5641 5640 5639 5637 5636 5633 5631 5630 5629 5628 5627 5626 5625 5624 5624 5624 5623 5624 5623 5623 5623 5623 5623 5623 5623 5623 5622 5623 5622 5621 5621 5620 5620 5618
5629 5631 5633 5634 5634 5635 5636 5639 5639 5637 5636 5634 5631 5629 5627 5626 5626 5625 5625 5624 5623 5622 5622 5622 5621 5621 5621 5620 5622 5622 5621 5622 5622 5621 5621 5621 5620 5620 5620 5619 5617 5616
5625 5628 5629 5627 5625 5626 5632 5636 5636 5634 5632 5630 5627 5626 5624 5623 5623 5623 5623 5622 5621 5620 5620 5619 5618 5617 5617 5617 5619 5620 5619 5619 5619 5619 5619 5618 5619 5619 5617 5616 5614 5613
5626 5627 5625 5620 5617 5618 5625 5632 5632 5629 5628 5624 5624 5622 5621 5620 5621 5620 5621 5620 5619 5617 5615 5614 5613 5611 5612 5613 5615 5616 5616 5616 5616 5616 5616 5616 5616 5616 5614 5612 5612 5611
5623 5624 5621 5616 5613 5613 5620 5627 5627 5624 5622 5620 5620 5620 5618 5618 5618 5616 5616 5616 5614 5612 5610 5609 5608 5606 5607 5608 5610 5612 5612 5613 5613 5613 5612 5612 5613 5612 5611 5610 5609 5609
5617 5618 5615 5611 5612 5611 5614 5620 5622 5619 5618 5617 5617 5616 5615 5615 5613 5612 5612 5611 5609 5606 5604 5604 5603 5601 5601 5602 5604 5606 5608 5610 5610 5609 5609 5609 5609 5608 5607 5607 5606 5606
5613 5613 5609 5607 5610 5610 5607 5611 5614 5614 5614 5614 5613 5611 5609 5609 5608 5608 5608 5607 5603 5600 5598 5598 5597 5595 5595 5597 5599 5601 5604 5605 5606 5605 5605 5606 5605 5604 5603 5604 5603 5603
5609 5609 5605 5603 5605 5604 5601 5604 5608 5610 5609 5607 5606 5604 5603 5602 5602 5602 5602 5600 5598 5595 5594 5593 5591 5591 5592 5594 5595 5597 5600 5601 5601 5601 5602 5602 5602 5601 5600 5600 5600 5599
5604 5603 5600 5598 5599 5598 5599 5603 5606 5605 5603 5600 5598 5597 5597 5595 5594 5594 5595 5593 5592 5591 5589 5588 5587 5588 5589 5591 5592 5594 5596 5597 5597 5598 5598 5598 5599 5599 5596 5595 5595 5595
5598 5597 5595 5594 5594 5592 5595 5601 5601 5599 5597 5593 5590 5591 5592 5589 5587 5587 5587 5587 5587 5586 5583 5582 5582 5583 5585 5587 5589 5590 5592 5593 5593 5593 5594 5594 5595 5595 5593 5591 5591 5590
5591 5591 5590 5590 5589 5587 5589 5594 5595 5592 5590 5587 5586 5588 5586 5583 5581 5581 5580 5580 5582 5580 5578 5576 5576 5577 5580 5583 5585 5587 5589 5589 5589 5589 5589 5588 5588 5589 5589 5589 5587 5586
5581 5583 5583 5583 5583 5582 5583 5585 5586 5584 5582 5580 5582 5583 5580 5576 5576 5576 5575 5575 5575 5575 5573 5572 5571 5572 5576 5578 5580 5583 5584 5585 5584 5584 5585 5584 5582 5582 5583 5583 5581 5578
5570 5575 5576 5577 5577 5577 5576 5576 5577 5576 5574 5575 5578 5576 5572 5571 5570 5570 5569 5569 5569 5569 5569 5568 5567 5568 5572 5573 5575 5577 5580 5580 5579 5579 5579 5577 5573 5572 5573 5573 5572 5570
5562 5566 5569 5570 5569 5569 5568 5566 5567 5567 5567 5570 5572 5567 5564 5564 5564 5564 5564 5563 5564 5564 5563 5562 5562 5563 5566 5568 5570 5572 5574 5573 5573 5572 5571 5568 5563 5561 5563 5563 5562 5562
5553 5557 5560 5561 5561 5560 5559 5559 5560 5561 5561 5563 5564 5561 5558 5557 5559 5558 5557 5558 5558 5558 5558 5557 5556 5557 5560 5562 5563 5565 5566 5565 5565 5565 5564 5560 5556 5555 5554 5555 5555 5556
5545 5547 5550 5552 5552 5551 5551 5551 5553 5555 5555 5556 5557 5555 5553 5552 5553 5553 5553 5553 5553 5552 5552 5551 5549 5550 5553 5556 5557 5557 5558 5557 5556 5557 5556 5554 5552 5550 5549 5548 5549 5549
5537 5539 5540 5541 5541 5541 5543 5544 5546 5547 5550 5552 5552 5550 5548 5549 5548 5548 5547 5547 5547 5545 5544 5543 5542 5543 5545 5547 5549 5549 5550 5550 5549 5547 5547 5549 5548 5547 5544 5543 5543 5543